Sigonella, Italy

9:39 AM CEST on September 29, 2016 (GMT +0200)
Sigonella Mil

Weather History for LICZ - November, 2013

Change the Weather History Date:

Monday, November 11, 2013

  Actual Average Record
Temperature  
Mean Temperature 58 °F -  
Max Temperature 66 °F 68 °F 77 °F (2001)
Min Temperature 50 °F 50 °F 41 °F (2006)
Degree Days  
Heating Degree Days 7    
Growing Degree Days 8 (Base 50)    
Moisture  
Dew Point 51 °F    
Average Humidity 79    
Maximum Humidity 100    
Minimum Humidity 39    
Precipitation  
Precipitation 0.16 in - - ()
Sea Level Pressure  
Sea Level Pressure 29.65 in    
Wind  
Wind Speed 10 mph ()    
Max Wind Speed 28 mph    
Max Gust Speed -    
Visibility 6.0 miles    
Events Rain    
Averages and records for this station are not official NWS values.
T = Trace of Precipitation, MM = Missing Value Source: Averaged Metar Reports

Daily Weather History Graph

Daily Weather History Graph

Search for Another Location

Airport or City:

Trip Planner

Search our weather history database for the weather conditions in past years. The results will help you decide how hot, cold, wet, or windy it might be!

Date:

Astronomy

Nov. 11, 2013 Rise Set
Actual Time 6:35 AM CET 4:52 PM CET
Civil Twilight 6:07 AM CET 5:20 PM CET
Nautical Twilight 5:36 AM CET 5:51 PM CET
Astronomical Twilight 5:05 AM CET 6:22 PM CET
Moon 1:16 PM CET (11/11) 12:09 AM CET (11/11)
Length of Visible Light 11h 12m
Length of Day
10h 17m
Waxing Gibbous, 63% of the Moon is Illuminated
Nov 11
Waxing Gibbous
Nov 17
Full
Nov 25
Last Quarter
Dec 3
New
Dec 9
First Quarter

Hourly Weather History & Observations

Time (CET) Temp. Dew Point Humidity Pressure Visibility Wind Dir Wind Speed Gust Speed Precip Events Conditions
12:55 AM 59.0 °F 51.8 °F 77% 29.80 in 6.2 mi West 11.5 mph - N/A   Partly Cloudy
1:00 AM 59 °F 52 °F 70% 29.82 in 12 mi West 11.5 mph - -   Scattered Clouds
1:55 AM 59.0 °F 55.4 °F 88% 29.77 in 6.2 mi West 8.1 mph - N/A   Partly Cloudy
2:55 AM 59.0 °F 57.2 °F 94% 29.74 in - WNW 5.8 mph - N/A   Clear
3:55 AM 59.0 °F 59.0 °F 100% 29.71 in 6.2 mi WSW 5.8 mph - N/A Rain Light Rain
4:00 AM 59 °F 59 °F 100% 29.72 in 8 mi WSW 5.8 mph - - Rain Light Rain
4:55 AM 59.0 °F 59.0 °F 100% 29.68 in 6.2 mi NW 4.6 mph - N/A   Scattered Clouds
5:55 AM 59.0 °F 59.0 °F 100% 29.65 in 6.2 mi NW 4.6 mph - N/A   Light Drizzle
6:55 AM 59.0 °F 59.0 °F 100% 29.65 in 3.7 mi WNW 3.5 mph - N/A Rain Light Rain
7:00 AM 59 °F 59 °F 100% 29.66 in 4 mi WNW 3.5 mph - - Rain Light Rain
7:55 AM 57.2 °F 57.2 °F 100% 29.65 in 4.3 mi WSW 18.4 mph - N/A Rain Light Rain
8:55 AM 57.2 °F 57.2 °F 100% 29.62 in 5.6 mi SW 10.4 mph - N/A   Mostly Cloudy
9:55 AM 60.8 °F 55.4 °F 82% 29.59 in 5.6 mi WSW 23.0 mph - N/A   Mostly Cloudy
10:00 AM 61 °F 56 °F 77% 29.62 in 6 mi WSW 23.0 mph - -   Mist
10:55 AM 62.6 °F 44.6 °F 52% 29.59 in 5.6 mi WSW 24.2 mph - N/A   Mostly Cloudy
11:55 AM 64.4 °F 46.4 °F 52% 29.59 in 5.6 mi West 27.6 mph - N/A   Mostly Cloudy
12:55 PM 62.6 °F 44.6 °F 52% 29.56 in 5.6 mi West 21.9 mph - N/A   Scattered Clouds
1:00 PM 63 °F 44 °F 39% 29.59 in 6 mi West 21.9 mph - -   Mist
1:55 PM 64.4 °F 42.8 °F 45% 29.56 in 5.6 mi West 16.1 mph - N/A   Scattered Clouds
2:55 PM 62.6 °F 42.8 °F 48% 29.59 in 5.6 mi WNW 11.5 mph - N/A   Scattered Clouds
3:55 PM 62.6 °F 44.6 °F 52% 29.56 in 5.6 mi West 18.4 mph - N/A   Scattered Clouds
4:00 PM 63 °F 45 °F 41% 29.58 in 6 mi West 18.4 mph - -   Mist
4:55 PM 59.0 °F 44.6 °F 59% 29.56 in 6.2 mi West 13.8 mph - N/A   Partly Cloudy
5:55 PM 57.2 °F 48.2 °F 72% 29.62 in 6.2 mi NW 4.6 mph - N/A   Partly Cloudy
6:55 PM 53.6 °F 50.0 °F 88% 29.65 in 6.2 mi SW 5.8 mph - N/A   Scattered Clouds
7:00 PM 54 °F 49 °F 79% 29.67 in 6 mi SW 5.8 mph - -   Scattered Clouds
8:55 PM 51.8 °F 48.2 °F 88% 29.68 in 6.2 mi WSW 9.2 mph - N/A   Partly Cloudy
9:55 PM 50.0 °F 48.2 °F 94% 29.68 in 6.2 mi WNW 9.2 mph - N/A   Partly Cloudy
10:00 PM 51 °F 48 °F 85% 29.70 in 6 mi WNW 9.2 mph - -   Scattered Clouds
10:55 PM 53.6 °F 53.6 °F 100% 29.68 in 6.2 mi WNW 10.4 mph - N/A   Scattered Clouds
11:55 PM 51.8 °F 51.8 °F 100% 29.71 in 6.2 mi ENE 1.2 mph - N/A   Scattered Clouds